Snowfall_Accumulation
0.0 0.0 0.0 0.0 0.0 0.0 0.0 0.0 0.0 0.0 0.0 0.0 0.0 0.0 0.0 0.0 0.0 0.0 0.0 0.0 0.0 0.0 0.0 0.0 0.0 0.0 0.0 0.0 0.0 0.0 0.0 0.0 0.0 0.0 0.0 0.0 0.0 0.0
0.0 0.0 0.0 0.0 0.0 0.0 0.0 0.0 0.0 0.0 0.0 0.0 0.0 0.0 0.0 0.0 0.0 0.0 0.0 0.0 0.0 0.0 0.0 0.0 0.0 0.0 0.0 0.0 0.0 0.0 0.0 0.0 0.0 0.0 0.0 0.0 0.0 0.0
0.0 0.0 0.0 0.0 0.0 0.0 0.0 0.0 0.0 0.0 0.0 0.0 0.0 0.0 0.0 0.0 0.0 0.0 0.0 0.0 0.0 0.0 0.0 0.0 0.0 0.0 0.0 0.0 0.0 0.0 0.0 0.0 0.0 0.0 0.0 0.0 0.0 0.0
0.0 0.0 0.0 0.0 0.0 0.0 0.0 0.0 0.0 0.0 0.0 0.0 0.0 0.0 0.0 0.0 0.0 0.0 0.0 0.0 0.0 0.0 0.0 0.0 0.0 0.0 0.0 0.0 0.0 0.0 0.0 0.0 0.0 0.0 0.0 0.0 0.0 0.0
0.0 0.0 0.0 0.0 0.0 0.0 0.0 0.0 0.0 0.0 0.0 0.0 0.0 0.0 0.0 0.0 0.0 0.0 0.0 0.0 0.0 0.0 0.0 0.0 0.0 0.0 0.0 0.0 0.0 0.0 0.0 0.0 0.0 0.0 0.0 0.0 0.0 0.0
0.0 0.0 0.0 0.0 0.0 0.0 0.0 0.0 0.0 0.0 0.0 0.0 0.0 0.0 0.0 0.0 0.0 0.0 0.0 0.0 0.0 0.0 0.0 0.0 0.0 0.0 0.0 0.0 0.0 0.0 0.0 0.0 0.0 0.0 0.0 0.0 0.0 0.0
0.0 0.0 0.0 0.0 0.0 0.0 0.0 0.0 0.0 0.0 0.0 0.1 0.1 0.1 0.0 0.0 0.0 0.0 0.0 0.0 0.0 0.0 0.0 0.0 0.0 0.0 0.0 0.0 0.0 0.0 0.0 0.0 0.0 0.0 0.0 0.0 0.0 0.0
0.0 0.0 0.0 0.0 0.0 0.0 0.0 0.0 0.0 0.0 0.2 0.5 0.3 0.2 0.0 0.0 0.0 0.0 0.0 0.1 0.2 0.0 0.0 0.0 0.0 0.0 0.0 0.0 0.0 0.0 0.0 0.0 0.0 0.0 0.0 0.0 0.0 0.0
0.0 0.0 0.0 0.0 0.0 0.0 0.0 0.0 0.0 0.0 0.0 0.0 0.2 0.1 0.2 0.0 0.0 0.1 0.3 0.6 0.6 0.0 0.0 0.1 0.0 0.0 0.0 0.0 0.0 0.0 0.0 0.0 0.0 0.0 0.0 0.0 0.0 0.0
0.0 0.0 0.0 0.0 0.0 0.0 0.0 0.2 0.1 0.0 0.0 0.0 0.0 0.0 0.0 0.0 0.1 0.4 0.7 0.3 0.0 0.0 0.0 0.5 0.0 0.0 0.0 0.0 0.0 0.0 0.0 0.0 0.0 0.0 0.0 0.0 0.0 0.0
0.0 0.0 0.0 0.0 0.0 0.0 0.4 0.4 0.0 0.0 0.0 0.0 0.0 0.0 0.0 0.0 0.0 0.1 0.9 0.9 0.8 0.0 0.0 0.2 0.0 0.1 0.1 0.0 0.0 0.0 0.0 0.0 0.0 0.0 0.0 0.0 0.0 0.0
0.0 0.0 0.0 0.0 0.0 0.1 0.0 0.1 0.4 0.0 0.0 0.0 0.0 0.0 0.0 0.0 0.0 0.2 1.9 3.7 1.9 1.2 0.0 0.6 0.3 0.4 1.0 1.5 1.5 1.0 0.0 0.0 0.0 0.0 0.0 0.0 0.0 0.0
0.4 0.0 0.0 0.0 0.2 0.0 0.0 0.0 0.1 0.0 0.1 0.1 0.0 0.0 0.0 0.0 0.1 0.2 0.9 2.5 3.3 1.7 0.1 0.6 1.6 0.2 3.2 3.3 3.5 3.3 2.2 0.0 0.0 0.0 0.0 0.0 0.0 0.0
0.1 0.0 0.2 0.2 0.0 0.0 0.0 0.0 0.0 0.0 0.0 0.0 0.2 0.2 0.1 0.1 0.1 0.1 0.1 0.9 1.8 3.0 0.5 0.6 4.8 4.2 4.4 4.9 4.9 5.8 2.8 3.0 0.6 0.2 0.0 0.0 0.0 0.0
0.0 0.3 0.1 0.0 0.0 0.0 0.0 0.0 0.0 0.0 0.5 1.0 0.7 0.3 0.4 0.8 1.5 2.3 4.7 4.9 5.8 6.4 6.4 5.9 5.5 6.1 5.9 5.1 4.4 5.5 5.9 6.1 1.8 1.2 0.5 0.0 0.4 0.0
0.6 0.2 0.0 0.0 0.0 0.0 0.0 0.0 0.0 0.1 0.9 2.2 2.1 2.0 3.0 4.6 5.3 6.4 9.3 9.2 9.5 9.3 7.6 6.2 5.9 5.3 4.2 3.6 3.5 4.5 4.7 5.4 4.6 2.5 2.2 1.7 0.3 0.1
0.1 0.0 0.0 0.0 0.0 0.0 0.0 0.0 0.0 0.1 1.6 1.8 2.6 2.9 4.1 6.6 7.6 8.9 11.4 10.7 9.4 8.1 7.3 5.6 4.1 3.5 3.1 2.8 3.4 3.8 4.1 4.5 3.8 3.5 2.4 2.5 2.5 1.1
0.0 0.0 0.0 0.1 0.2 0.1 0.5 0.6 0.7 0.9 2.7 4.1 5.1 6.0 7.4 8.9 11.1 13.1 13.0 10.8 8.5 7.0 6.2 5.1 4.1 3.2 2.7 2.4 2.3 3.5 3.5 3.9 3.5 2.4 1.3 1.2 1.9 1.5
0.0 0.2 0.2 0.4 0.5 0.7 1.1 2.0 2.8 3.3 5.8 7.7 8.7 9.2 9.0 10.8 12.6 12.9 10.6 7.8 6.0 3.9 2.4 1.4 1.2 1.7 2.3 2.1 2.1 1.7 1.9 2.2 2.0 1.9 1.3 0.5 0.7 0.8
0.2 1.3 0.3 0.7 1.1 1.8 2.6 4.5 6.6 7.6 6.9 8.8 10.0 10.6 11.4 13.2 13.5 11.6 8.0 4.2 1.9 0.7 0.3 0.2 0.1 0.3 0.7 0.8 0.7 1.0 0.9 1.2 0.9 0.8 1.0 0.8 0.5 0.0
0.2 1.6 1.8 1.2 2.3 2.6 3.1 5.6 7.9 10.6 12.6 13.5 12.5 13.5 13.3 11.9 9.3 6.1 3.4 0.9 0.2 0.1 0.1 0.0 0.0 0.0 0.0 0.0 0.1 0.3 0.6 0.4 0.2 0.2 0.4 0.7 0.3 0.2
0.2 1.1 1.3 2.1 1.8 2.6 4.8 8.3 11.1 12.1 13.1 12.4 13.4 12.7 10.1 7.4 4.6 1.8 0.5 0.1 0.1 0.2 0.2 0.1 0.0 0.0 0.0 0.0 0.0 0.0 0.0 0.1 0.0 0.0 0.1 0.5 0.5 0.4
0.5 0.4 1.3 1.9 2.0 3.1 6.0 8.9 12.0 13.3 13.0 12.9 11.9 9.2 6.2 3.1 0.2 0.0 0.0 0.2 0.3 0.2 0.2 0.1 0.1 0.0 0.0 0.0 0.0 0.0 0.0 0.0 0.0 0.1 0.2 0.2 0.4 0.7